Date String (YYYY-MM-DD hh:mm:ss) UTC,Instrument flags,Ambient pressure (hPa),Sample flow (lpm),Bypass flow (lpm),Sample temperature (°C),Ambient temperature (°C),ASC tube jacket temperature (°C),LED temperature (°C),Box temperature (°C),Sample RH (%),Span deviation,Mass concentration (μg/m³),Mass concentration (μg/m³),Mass concentration (μg/m³)
DateTimeUTC,F1_M11,P_M11,Q1_M11,Q2_M11,T1_M11,T2_M11,T3_M11,T4_M11,T5_M11,U1_M11,ZSPAN_M11,X2_M11,X0_M11,X1_M11
2022-09-15 05:00:00,,0823.8,5.00,0.00,30.4,29.1,00.0,39.2,32.3,22.9,0000.0,0001.58,0001.96,0001.38
2022-09-15 05:01:00,,0823.8,5.00,0.00,30.5,29.1,00.0,39.2,32.3,22.8,0000.0,0001.56,0001.95,0001.37
2022-09-15 05:02:00,,0823.9,5.00,0.00,30.5,29.1,00.0,39.2,32.3,22.9,0000.0,0001.54,0001.90,0001.37
2022-09-15 05:03:00,,0823.9,4.99,0.00,30.5,29.2,00.0,39.2,32.3,22.9,0000.0,0001.53,0001.90,0001.37
2022-09-15 05:04:00,,0823.9,5.00,0.00,30.5,29.2,00.0,39.2,32.3,22.8,0000.0,0001.53,0001.87,0001.37
2022-09-15 05:05:00,,0824.0,5.01,0.00,30.5,29.2,00.0,39.2,32.3,22.7,0000.0,0001.56,0002.39,0001.39
2022-09-15 05:06:00,,0824.0,4.99,0.00,30.5,29.1,00.0,39.2,32.3,22.6,0000.0,0001.59,0002.99,0001.40
2022-09-15 05:07:00,,0823.9,5.01,0.00,30.5,29.1,00.0,39.2,32.3,22.6,0000.0,0001.64,0003.07,0001.43
2022-09-15 05:08:00,,0824.0,4.99,0.00,30.5,29.2,00.0,39.3,32.3,22.4,0000.0,0001.64,0003.08,0001.44
2022-09-15 05:09:00,,0824.0,5.00,0.00,30.5,29.2,00.0,39.3,32.3,22.3,0000.0,0001.68,0003.22,0001.46
2022-09-15 05:10:00,,0823.9,4.99,0.00,30.5,29.2,00.0,39.3,32.3,22.3,0000.0,0001.69,0003.23,0001.48
2022-09-15 05:11:00,,0824.0,5.00,0.00,30.6,29.2,00.0,39.3,32.3,22.4,0000.0,0001.69,0003.22,0001.51
2022-09-15 05:12:00,,0824.0,5.00,0.00,30.6,29.2,00.0,39.3,32.4,22.2,0000.0,0001.69,0003.20,0001.52
2022-09-15 05:13:00,,0824.0,4.99,0.00,30.6,29.2,00.0,39.3,32.4,22.0,0000.0,0001.71,0003.21,0001.53
2022-09-15 05:14:00,,0824.0,5.01,0.00,30.6,29.2,00.0,39.3,32.4,22.1,0000.0,0001.75,0003.28,0001.55
2022-09-15 05:15:00,,0824.0,4.97,0.00,30.6,29.2,00.0,39.3,32.4,22.1,0000.0,0001.78,0003.36,0001.56
2022-09-15 05:16:00,,0824.0,5.01,0.00,30.6,29.2,00.0,39.3,32.4,22.7,0000.0,0001.81,0002.96,0001.57
2022-09-15 05:17:00,,0824.1,5.00,0.00,30.6,29.2,00.0,39.3,32.4,22.5,0000.0,0001.82,0002.41,0001.57
2022-09-15 05:18:00,,0824.1,4.99,0.00,30.6,29.2,00.0,39.4,32.4,22.4,0000.0,0001.81,0002.38,0001.57
2022-09-15 05:19:00,,0824.1,5.01,0.00,30.6,29.2,00.0,39.4,32.4,22.4,0000.0,0001.81,0002.34,0001.57
2022-09-15 05:20:00,,0824.2,5.00,0.00,30.6,29.2,00.0,39.4,32.4,22.4,0000.0,0001.82,0002.26,0001.58
2022-09-15 05:21:00,,0824.1,4.99,0.00,30.6,29.2,00.0,39.4,32.4,22.3,0000.0,0001.85,0002.33,0001.58
2022-09-15 05:22:00,,0824.1,5.01,0.00,30.6,29.2,00.0,39.4,32.4,22.5,0000.0,0001.87,0002.44,0001.59
2022-09-15 05:23:00,,0824.1,4.99,0.00,30.6,29.1,00.0,39.4,32.4,22.5,0000.0,0001.92,0002.55,0001.61
2022-09-15 05:24:00,,0824.1,5.00,0.00,30.6,29.1,00.0,39.4,32.4,22.4,0000.0,0001.93,0002.57,0001.61
2022-09-15 05:25:00,,0824.1,5.01,0.00,30.6,29.1,00.0,39.4,32.4,22.1,0000.0,0001.93,0002.58,0001.61
2022-09-15 05:26:00,,0824.1,4.99,0.00,30.6,29.1,00.0,39.4,32.4,22.0,0000.0,0001.92,0002.64,0001.62
2022-09-15 05:27:00,,0824.2,5.01,0.00,30.7,29.1,00.0,39.4,32.4,21.8,0000.0,0001.88,0002.64,0001.61
2022-09-15 05:28:00,,0824.1,4.98,0.00,30.7,29.1,00.0,39.4,32.4,21.7,0000.0,0001.84,0002.55,0001.59
2022-09-15 05:29:00,,0824.1,5.01,0.00,30.7,29.1,00.0,39.4,32.4,21.7,0000.0,0001.82,0002.53,0001.59
2022-09-15 05:30:00,,0824.1,4.99,0.00,30.7,29.2,00.0,39.4,32.4,21.7,0000.0,0001.81,0002.51,0001.59
2022-09-15 05:31:00,,0824.1,5.01,0.00,30.7,29.2,00.0,39.4,32.4,21.7,0000.0,0001.79,0002.62,0001.58
2022-09-15 05:32:00,,0824.1,5.00,0.00,30.7,29.2,00.0,39.4,32.4,21.7,0000.0,0001.77,0002.60,0001.57
2022-09-15 05:33:00,,0824.1,4.99,0.00,30.7,29.2,00.0,39.4,32.4,21.7,0000.0,0001.73,0002.47,0001.55
2022-09-15 05:34:00,,0824.1,5.01,0.00,30.7,29.2,00.0,39.4,32.5,21.7,0000.0,0001.71,0002.43,0001.53
2022-09-15 05:35:00,,0824.2,5.00,0.00,30.7,29.2,00.0,39.4,32.5,21.6,0000.0,0001.70,0002.42,0001.52
2022-09-15 05:36:00,,0824.1,4.99,0.00,30.7,29.2,00.0,39.4,32.4,21.7,0000.0,0001.71,0002.51,0001.52
2022-09-15 05:37:00,,0824.2,5.00,0.00,30.7,29.2,00.0,39.4,32.4,21.6,0000.0,0001.70,0002.42,0001.51
2022-09-15 05:38:00,,0824.1,4.99,0.00,30.7,29.3,00.0,39.4,32.5,21.5,0000.0,0001.70,0002.39,0001.52
2022-09-15 05:39:00,,0824.1,5.01,0.00,30.7,29.3,00.0,39.5,32.5,21.5,0000.0,0001.71,0002.43,0001.52
2022-09-15 05:40:00,,0824.1,4.99,0.00,30.7,29.2,00.0,39.5,32.5,21.4,0000.0,0001.71,0002.45,0001.52
2022-09-15 05:41:00,,0824.1,5.00,0.00,30.7,29.2,00.0,39.5,32.5,21.4,0000.0,0001.71,0002.45,0001.52
2022-09-15 05:42:00,,0824.1,5.01,0.00,30.7,29.2,00.0,39.5,32.5,21.5,0000.0,0001.71,0002.35,0001.51
2022-09-15 05:43:00,,0824.1,4.99,0.00,30.7,29.1,00.0,39.5,32.5,21.5,0000.0,0001.72,0002.64,0001.52
2022-09-15 05:44:00,,0824.0,5.00,0.00,30.7,27.8,00.0,39.4,32.4,21.5,0000.0,0001.74,0002.87,0001.52
2022-09-15 05:45:00,,0824.1,5.01,0.00,30.7,26.8,00.0,39.4,32.3,21.5,0000.0,0001.74,0002.86,0001.53
2022-09-15 05:46:00,,0824.1,5.00,0.00,30.6,26.7,00.0,39.3,32.1,21.5,0000.0,0001.75,0002.89,0001.54
2022-09-15 05:47:00,,0824.1,5.00,0.00,30.4,27.0,00.0,39.3,31.9,21.8,0000.0,0001.74,0002.80,0001.54
2022-09-15 05:48:00,,0824.1,5.00,0.00,30.4,27.4,00.0,39.2,31.9,21.8,0000.0,0001.74,0002.74,0001.55
2022-09-15 05:49:00,,0824.2,5.02,0.00,30.3,27.6,00.0,39.2,31.9,21.8,0000.0,0001.74,0002.72,0001.54
2022-09-15 05:50:00,,0824.1,5.01,0.00,30.3,27.9,00.0,39.1,31.9,21.8,0000.0,0001.72,0002.67,0001.53
2022-09-15 05:51:00,,0824.1,5.01,0.00,30.2,28.0,00.0,39.1,31.9,21.8,0000.0,0001.72,0002.66,0001.53
2022-09-15 05:52:00,,0824.1,4.99,0.00,30.2,28.2,00.0,39.1,31.9,21.8,0000.0,0001.73,0002.71,0001.53
2022-09-15 05:53:00,,0824.1,5.00,0.00,30.2,28.3,00.0,39.1,31.9,21.8,0000.0,0001.76,0002.75,0001.53
2022-09-15 05:54:00,,0824.1,5.00,0.00,30.2,28.4,00.0,39.1,32.0,21.7,0000.0,0001.75,0002.63,0001.52
2022-09-15 05:55:00,,0824.1,5.00,0.00,30.2,28.5,00.0,39.1,32.0,21.6,0000.0,0001.73,0002.26,0001.52
2022-09-15 05:56:00,,0824.1,5.00,0.00,30.2,28.5,00.0,39.0,32.0,21.5,0000.0,0001.73,0002.22,0001.52
2022-09-15 05:57:00,,0824.1,5.00,0.00,30.2,28.6,00.0,39.0,32.0,21.6,0000.0,0001.73,0002.32,0001.51
2022-09-15 05:58:00,,0824.2,4.99,0.00,30.2,28.7,00.0,39.0,32.0,21.6,0000.0,0001.73,0002.32,0001.52
2022-09-15 05:59:00,,0824.2,5.01,0.00,30.2,28.7,00.0,39.0,32.0,21.6,0000.0,0001.74,0002.35,0001.52
